• In Czech Republic
  • List of Countries
  • For 7 days
  • Water Temperature
  • Satellite Maps
  • Weather Map
  • Weather Widgets
  • user-avatar
    Login

    Hourly Weather Nashavar

    Today, 22 August, Tuesday

    Time Temperature Precipitation Wind Pressure Humidity
    00:00 +35°C° 0 mm 1 mps 724 mmHg 43%
    01:00 +34°C° 0 mm 1 mps 724 mmHg 44%
    02:00 +34°C° 0 mm 1 mps 724 mmHg 45%
    03:00 +33°C° 0 mm 1 mps 724 mmHg 47%
    04:00 +33°C° 0 mm 1 mps 724 mmHg 48%
    05:00 +33°C° 0 mm 1 mps 724 mmHg 47%
    06:00 +33°C° 0 mm 1 mps 724 mmHg 46%
    07:00 +35°C° 0 mm 2 mps 725 mmHg 44%
    08:00 +35°C° 0 mm 2 mps 725 mmHg 43%
    09:00 +36°C° 0 mm 2 mps 725 mmHg 40%
    10:00 +37°C° 0 mm 2 mps 725 mmHg 37%
    11:00 +39°C° 0 mm 2 mps 725 mmHg 35%
    12:00 +40°C° 0 mm 2 mps 724 mmHg 33%
    13:00 +40°C° 0 mm 2 mps 724 mmHg 31%
    14:00 +41°C° 0 mm 2 mps 724 mmHg 29%
    15:00 +41°C° 0 mm 2 mps 723 mmHg 28%
    16:00 +43°C° 0 mm 3 mps 723 mmHg 27%
    17:00 +43°C° 0 mm 3 mps 723 mmHg 26%
    18:00 +42°C° 0 mm 3 mps 723 mmHg 28%
    19:00 +40°C° 0 mm 3 mps 723 mmHg 31%
    20:00 +39°C° 0 mm 3 mps 723 mmHg 33%
    21:00 +38°C° 0 mm 2 mps 724 mmHg 35%
    22:00 +38°C° 0 mm 2 mps 724 mmHg 37%
    23:00 +37°C° 0 mm 2 mps 724 mmHg 39%

    Tomorrow, 23 August, Wednesday

    Time Temperature Precipitation Wind Pressure Humidity
    00:00 +37°C° 0 mm 2 mps 724 mmHg 41%
    01:00 +36°C° 0 mm 2 mps 724 mmHg 43%
    02:00 +36°C° 0 mm 2 mps 724 mmHg 44%
    03:00 +35°C° 0.2 mm 2 mps 724 mmHg 47%
    04:00 +34°C° 0.2 mm 2 mps 724 mmHg 49%
    05:00 +34°C° 0.2 mm 2 mps 724 mmHg 51%
    06:00 +34°C° 0.1 mm 2 mps 725 mmHg 49%
    07:00 +34°C° 0.1 mm 2 mps 725 mmHg 48%
    08:00 +35°C° 0.1 mm 2 mps 725 mmHg 47%
    09:00 +36°C° 0 mm 2 mps 725 mmHg 43%
    10:00 +37°C° 0 mm 2 mps 725 mmHg 40%
    11:00 +39°C° 0 mm 2 mps 725 mmHg 37%
    12:00 +40°C° 0 mm 2 mps 725 mmHg 35%
    13:00 +40°C° 0 mm 2 mps 724 mmHg 32%
    14:00 +41°C° 0 mm 2 mps 724 mmHg 30%
    15:00 +42°C° 0 mm 2 mps 723 mmHg 29%
    16:00 +42°C° 0 mm 2 mps 723 mmHg 28%
    17:00 +42°C° 0 mm 2 mps 723 mmHg 27%
    18:00 +41°C° 0 mm 2 mps 723 mmHg 29%
    19:00 +40°C° 0 mm 3 mps 723 mmHg 31%
    20:00 +40°C° 0 mm 3 mps 723 mmHg 33%
    21:00 +39°C° 0.1 mm 3 mps 723 mmHg 35%
    22:00 +38°C° 0.1 mm 2 mps 724 mmHg 37%
    23:00 +37°C° 0.1 mm 2 mps 724 mmHg 39%

    Day after tomorrow, 24 August, Thursday

    Time Temperature Precipitation Wind Pressure Humidity
    00:00 +37°C° 0.1 mm 2 mps 724 mmHg 40%
    01:00 +36°C° 0.1 mm 2 mps 723 mmHg 42%
    02:00 +36°C° 0.1 mm 2 mps 723 mmHg 44%
    03:00 +35°C° 0.1 mm 2 mps 723 mmHg 46%
    04:00 +35°C° 0.1 mm 2 mps 723 mmHg 47%
    05:00 +34°C° 0.1 mm 2 mps 723 mmHg 49%
    06:00 +35°C° 0 mm 2 mps 723 mmHg 47%
    07:00 +35°C° 0 mm 2 mps 724 mmHg 46%
    08:00 +35°C° 0 mm 1 mps 724 mmHg 44%
    09:00 +37°C° 0.1 mm 2 mps 724 mmHg 42%
    10:00 +38°C° 0.1 mm 2 mps 724 mmHg 39%
    11:00 +39°C° 0.1 mm 2 mps 725 mmHg 36%
    12:00 +40°C° 0 mm 2 mps 724 mmHg 35%
    13:00 +42°C° 0 mm 3 mps 723 mmHg 33%
    14:00 +43°C° 0 mm 3 mps 723 mmHg 31%
    15:00 +43°C° 0 mm 3 mps 723 mmHg 31%
    16:00 +43°C° 0 mm 3 mps 722 mmHg 31%
    17:00 +43°C° 0 mm 3 mps 722 mmHg 31%
    18:00 +42°C° 0.1 mm 3 mps 722 mmHg 33%
    19:00 +40°C° 0.1 mm 3 mps 722 mmHg 36%
    20:00 +39°C° 0.1 mm 3 mps 722 mmHg 38%
    21:00 +38°C° 0.3 mm 2 mps 722 mmHg 40%
    22:00 +38°C° 0.3 mm 2 mps 722 mmHg 42%
    23:00 +37°C° 0.3 mm 2 mps 722 mmHg 44%

    25 August, Friday

    Time Temperature Precipitation Wind Pressure Humidity
    00:00 +36°C° 0.3 mm 2 mps 722 mmHg 46%
    01:00 +35°C° 0.3 mm 1 mps 722 mmHg 48%
    02:00 +34°C° 0.3 mm 1 mps 722 mmHg 49%
    03:00 +34°C° 0.4 mm 1 mps 722 mmHg 51%
    04:00 +33°C° 0.4 mm 1 mps 722 mmHg 53%
    05:00 +33°C° 0.4 mm 1 mps 722 mmHg 55%
    06:00 +33°C° 0.2 mm 1 mps 722 mmHg 53%
    07:00 +34°C° 0.2 mm 1 mps 722 mmHg 51%
    08:00 +34°C° 0.2 mm 1 mps 723 mmHg 49%
    09:00 +35°C° 0 mm 1 mps 723 mmHg 45%
    10:00 +37°C° 0 mm 2 mps 723 mmHg 42%
    11:00 +39°C° 0 mm 2 mps 723 mmHg 39%
    12:00 +39°C° 0 mm 2 mps 722 mmHg 36%
    13:00 +40°C° 0 mm 2 mps 722 mmHg 34%
    14:00 +41°C° 0 mm 2 mps 721 mmHg 31%
    15:00 +41°C° 0 mm 2 mps 721 mmHg 31%
    16:00 +41°C° 0 mm 2 mps 720 mmHg 30%
    17:00 +42°C° 0 mm 2 mps 720 mmHg 30%
    18:00 +41°C° 0.1 mm 2 mps 720 mmHg 32%
    19:00 +40°C° 0.1 mm 2 mps 721 mmHg 35%
    20:00 +39°C° 0.1 mm 2 mps 721 mmHg 38%
    21:00 +38°C° 0.1 mm 2 mps 721 mmHg 39%
    22:00 +37°C° 0.1 mm 2 mps 721 mmHg 41%
    23:00 +37°C° 0.1 mm 2 mps 721 mmHg 43%

    26 August, Saturday

    Time Temperature Precipitation Wind Pressure Humidity
    00:00 +36°C° 0.1 mm 2 mps 721 mmHg 43%
    01:00 +36°C° 0.1 mm 2 mps 721 mmHg 44%
    02:00 +34°C° 0.1 mm 1 mps 720 mmHg 45%
    03:00 +34°C° 0 mm 2 mps 721 mmHg 44%
    04:00 +34°C° 0 mm 2 mps 721 mmHg 42%
    05:00 +32°C° 0 mm 2 mps 721 mmHg 41%
    06:00 +34°C° 0 mm 2 mps 721 mmHg 36%
    07:00 +35°C° 0 mm 2 mps 722 mmHg 32%
    08:00 +36°C° 0 mm 2 mps 722 mmHg 28%
    09:00 +37°C° 0 mm 2 mps 722 mmHg 24%
    10:00 +38°C° 0 mm 2 mps 722 mmHg 20%
    11:00 +39°C° 0 mm 2 mps 723 mmHg 17%
    12:00 +40°C° 0 mm 2 mps 722 mmHg 15%
    13:00 +41°C° 0 mm 2 mps 722 mmHg 14%
    14:00 +42°C° 0 mm 1 mps 722 mmHg 13%
    15:00 +42°C° 0 mm 1 mps 721 mmHg 13%
    16:00 +42°C° 0 mm 2 mps 721 mmHg 13%
    17:00 +42°C° 0 mm 2 mps 721 mmHg 13%
    18:00 +41°C° 0 mm 2 mps 721 mmHg 16%
    19:00 +40°C° 0 mm 2 mps 721 mmHg 18%
    20:00 +37°C° 0 mm 1 mps 721 mmHg 21%
    21:00 +37°C° 0 mm 1 mps 722 mmHg 23%
    22:00 +36°C° 0 mm 1 mps 722 mmHg 25%
    23:00 +35°C° 0 mm 1 mps 722 mmHg 27%

    27 August, Sunday

    Time Temperature Precipitation Wind Pressure Humidity
    00:00 +35°C° 0 mm 1 mps 722 mmHg 27%
    01:00 +35°C° 0 mm 2 mps 722 mmHg 28%
    02:00 +35°C° 0 mm 2 mps 722 mmHg 28%
    03:00 +34°C° 0 mm 2 mps 722 mmHg 28%
    04:00 +32°C° 0 mm 1 mps 722 mmHg 29%
    05:00 +32°C° 0 mm 1 mps 722 mmHg 29%
    06:00 +34°C° 0 mm 2 mps 723 mmHg 26%
    07:00 +35°C° 0 mm 2 mps 723 mmHg 23%
    08:00 +35°C° 0 mm 2 mps 723 mmHg 20%
    09:00 +37°C° 0 mm 2 mps 723 mmHg 17%
    10:00 +38°C° 0 mm 2 mps 724 mmHg 15%
    11:00 +40°C° 0 mm 2 mps 724 mmHg 13%
    12:00 +40°C° 0 mm 2 mps 723 mmHg 12%
    13:00 +41°C° 0 mm 2 mps 723 mmHg 12%
    14:00 +42°C° 0 mm 2 mps 723 mmHg 12%
    15:00 +42°C° 0 mm 2 mps 722 mmHg 12%
    16:00 +42°C° 0 mm 2 mps 722 mmHg 13%
    17:00 +42°C° 0 mm 2 mps 722 mmHg 13%
    18:00 +41°C° 0 mm 2 mps 722 mmHg 16%
    19:00 +39°C° 0 mm 1 mps 723 mmHg 18%
    20:00 +37°C° 0 mm 1 mps 723 mmHg 21%
    21:00 +36°C° 0 mm 1 mps 723 mmHg 21%
    22:00 +36°C° 0 mm 1 mps 723 mmHg 22%
    23:00 +35°C° 0 mm 1 mps 723 mmHg 23%
    Show more